| time (UTC) | temp F | wind direction | speed MPH | gust MPH | rain 1hr in | rain 24hr in | rain mn in | humidity % | barometer mb |
| 20260503005005 | 56 | 305 | 3.0 | 5.0 | 0.00 | 0.53 | 0.53 | 97 | 1015.6 |
| 20260503004004 | 56 | 332 | 3.0 | 5.0 | 0.00 | 0.53 | 0.53 | 96 | 1015.6 |
| 20260503003005 | 56 | 280 | 5.0 | 5.0 | 0.00 | 0.53 | 0.53 | 96 | 1015.6 |
| 20260503001004 | 56 | 272 | 2.0 | 2.0 | 0.00 | 0.53 | 0.53 | 96 | 1015.9 |
| 20260502235005 | 56 | 266 | 0.0 | 2.0 | 0.05 | 0.53 | 0.53 | 96 | 1015.9 |
| 20260502234005 | 56 | 266 | 2.0 | 2.0 | 0.28 | 0.53 | 0.53 | 96 | 1016.3 |
| 20260502232005 | 56 | 237 | 3.0 | 3.0 | 0.46 | 0.53 | 0.53 | 95 | 1016.3 |
| 20260502230004 | 56 | 278 | 3.0 | 6.0 | 0.50 | 0.50 | 0.50 | 95 | 1016.6 |
| 20260502225005 | 56 | 278 | 5.0 | 6.0 | 0.48 | 0.48 | 0.48 | 95 | 1016.6 |
| 20260502224005 | 56 | 278 | 3.0 | 3.0 | 0.25 | 0.25 | 0.25 | 91 | 1017.6 |
| 20260502221004 | 59 | 9 | 3.0 | 5.0 | 0.01 | 0.01 | 0.01 | 85 | 1018.6 |
| 20260502220004 | 58 | 158 | 5.0 | 5.0 | 0.00 | 0.00 | 0.00 | 91 | 1017.6 |
| 20260502215005 | 58 | 158 | 5.0 | 5.0 | 0.00 | 0.00 | 0.00 | 91 | 1017.6 |
| 20260502214005 | 58 | 161 | 3.0 | 5.0 | 0.00 | 0.00 | 0.00 | 91 | 1017.5 |
| 20260502213004 | 58 | 256 | 2.0 | 5.0 | 0.00 | 0.00 | 0.00 | 92 | 1016.9 |
| 20260502212005 | 59 | 256 | 5.0 | 5.0 | 0.00 | 0.00 | 0.00 | 92 | 1017.3 |
| 20260502211005 | 59 | 212 | 3.0 | 5.0 | 0.00 | 0.00 | 0.00 | 91 | 1017.3 |
| 20260502210005 | 59 | 132 | 1.0 | 2.0 | 0.00 | 0.00 | 0.00 | 90 | 1017.3 |
| 20260502205005 | 60 | 260 | 2.0 | 2.0 | 0.00 | 0.00 | 0.00 | 85 | 1017.6 |
| 20260502204005 | 60 | 126 | 2.0 | 2.0 | 0.00 | 0.00 | 0.00 | 75 | 1017.9 |
| 20260502203004 | 60 | 184 | 1.0 | 1.0 | 0.00 | 0.00 | 0.00 | 72 | 1017.9 |
| 20260502202004 | 60 | 164 | 0.0 | 2.0 | 0.00 | 0.00 | 0.00 | 69 | 1017.9 |
| 20260502201004 | 60 | 173 | 2.0 | 2.0 | 0.00 | 0.00 | 0.00 | 67 | 1017.9 |
| 20260502195004 | 61 | 290 | 1.0 | 2.0 | 0.00 | 0.00 | 0.00 | 61 | 1018.3 |
| 20260502194015 | 61 | 290 | 2.0 | 3.0 | 0.00 | 0.00 | 0.00 | 61 | 1018.3 |
| 20260502193006 | 62 | 118 | 2.0 | 2.0 | 0.00 | 0.00 | 0.00 | 62 | 1017.9 |
| 20260502192015 | 61 | 157 | 2.0 | 2.0 | 0.00 | 0.00 | 0.00 | 66 | 1018.3 |
| 20260502191016 | 62 | 168 | 1.0 | 3.0 | 0.00 | 0.00 | 0.00 | 65 | 1018.3 |
| 20260502190005 | 63 | 154 | 2.0 | 2.0 | 0.00 | 0.00 | 0.00 | 64 | 1017.9 |
| 20260502185004 | 63 | 166 | 2.0 | 2.0 | 0.00 | 0.00 | 0.00 | 63 | 1018.3 |
| 20260502184015 | 64 | 260 | 2.0 | 2.0 | 0.00 | 0.00 | 0.00 | 62 | 1017.9 |
| 20260502182005 | 67 | 156 | 2.0 | 2.0 | 0.00 | 0.00 | 0.00 | 47 | 1017.9 |
| 20260502164004 | 71 | 73 | 3.0 | 3.0 | 0.00 | 0.00 | 0.00 | 46 | 1019.0 |
| 20260502163004 | 71 | 72 | 3.0 | 3.0 | 0.00 | 0.00 | 0.00 | 47 | 1019.1 |
| 20260502162005 | 71 | 62 | 3.0 | 3.0 | 0.00 | 0.00 | 0.00 | 47 | 1019.0 |
| 20260502161006 | 71 | 71 | 3.0 | 5.0 | 0.00 | 0.00 | 0.00 | 48 | 1019.1 |
| 20260502152004 | 71 | 54 | 6.0 | 6.0 | 0.00 | 0.00 | 0.00 | 52 | 1019.6 |
| 20260502151005 | 72 | 56 | 3.0 | 3.0 | 0.00 | 0.00 | 0.00 | 50 | 1019.5 |
| 20260502123005 | 69 | 8 | 5.0 | 6.0 | 0.00 | 0.00 | 0.00 | 69 | 1021.3 |
| 20260502122005 | 69 | 75 | 6.0 | 6.0 | 0.00 | 0.00 | 0.00 | 70 | 1021.0 |
| 20260502121006 | 68 | 74 | 6.0 | 6.0 | 0.00 | 0.00 | 0.00 | 72 | 1021.0 |
| 20260502113005 | 68 | 66 | 5.0 | 7.0 | 0.00 | 0.00 | 0.00 | 72 | 1021.3 |
| 20260502112005 | 67 | 69 | 6.0 | 7.0 | 0.00 | 0.00 | 0.00 | 74 | 1021.7 |
| 20260502111005 | 67 | 57 | 5.0 | 5.0 | 0.00 | 0.00 | 0.00 | 75 | 1021.3 |
| 20260502110004 | 68 | 73 | 4.0 | 9.0 | 0.00 | 0.00 | 0.00 | 74 | 1021.3 |
| 20260502105005 | 68 | 48 | 9.0 | 9.0 | 0.00 | 0.00 | 0.00 | 74 | 1021.7 |
| 20260502104005 | 67 | 1 | 6.0 | 9.0 | 0.00 | 0.00 | 0.00 | 73 | 1021.7 |
| 20260502103004 | 67 | 32 | 6.0 | 6.0 | 0.00 | 0.00 | 0.00 | 72 | 1021.7 |
| 20260502102005 | 67 | 31 | 5.0 | 6.0 | 0.00 | 0.00 | 0.00 | 72 | 1021.7 |
| 20260502101004 | 68 | 72 | 6.0 | 7.0 | 0.00 | 0.00 | 0.00 | 71 | 1021.7 |
| 20260502091004 | 64 | 14 | 3.0 | 3.0 | 0.00 | 0.00 | 0.00 | 75 | 1021.7 |
| 20260502071004 | 57 | 26 | 1.0 | 2.0 | 0.00 | 0.00 | 0.00 | 72 | 1022.0 |
| 20260502070004 | 57 | 14 | 2.0 | 3.0 | 0.00 | 0.00 | 0.00 | 71 | 1022.0 |
| 20260502065005 | 56 | 31 | 2.0 | 3.0 | 0.00 | 0.00 | 0.00 | 69 | 1022.0 |
| 20260502064005 | 56 | 30 | 1.0 | 1.0 | 0.00 | 0.00 | 0.00 | 68 | 1022.0 |
| 20260502063006 | 56 | 30 | 1.0 | 1.0 | 0.00 | 0.00 | 0.00 | 68 | 1022.0 |
| 20260502062005 | 55 | 31 | 1.0 | 1.0 | 0.00 | 0.00 | 0.00 | 68 | 1021.7 |
| 20260502061005 | 55 | 30 | 1.0 | 2.0 | 0.00 | 0.00 | 0.00 | 68 | 1021.7 |
| 20260502060005 | 55 | 30 | 2.0 | 5.0 | 0.00 | 0.00 | 0.00 | 66 | 1022.0 |
| 20260502055004 | 55 | 16 | 3.0 | 5.0 | 0.00 | 0.00 | 0.00 | 65 | 1022.0 |
| 20260502054004 | 56 | 20 | 3.0 | 5.0 | 0.00 | 0.00 | 0.00 | 63 | 1021.7 |
| 20260502053005 | 56 | 42 | 3.0 | 5.0 | 0.00 | 0.00 | 0.00 | 62 | 1021.7 |
| 20260502052005 | 55 | 35 | 2.0 | 2.0 | 0.00 | 0.00 | 0.00 | 64 | 1021.7 |
| 20260502051005 | 55 | 35 | 2.0 | 3.0 | 0.00 | 0.00 | 0.00 | 64 | 1021.7 |
| 20260502050004 | 54 | 32 | 3.0 | 3.0 | 0.00 | 0.00 | 0.00 | 64 | 1021.7 |
| 20260502044005 | 55 | 32 | 1.0 | 3.0 | 0.00 | 0.00 | 0.00 | 64 | 1021.7 |
| 20260502043005 | 55 | 34 | 3.0 | 3.0 | 0.00 | 0.00 | 0.00 | 63 | 1021.4 |
| 20260502042005 | 55 | 31 | 2.0 | 3.0 | 0.00 | 0.00 | 0.00 | 64 | 1021.7 |
| 20260502040005 | 53 | 300 | 0.0 | 0.0 | 0.00 | 0.00 | 0.00 | 67 | 1021.7 |
| 20260502035005 | 52 | 300 | 0.0 | 0.0 | 0.00 | 0.00 | 0.00 | 68 | 1021.7 |
| 20260502034005 | 53 | 300 | 0.0 | 0.0 | 0.00 | 0.00 | 0.00 | 68 | 1021.7 |
| 20260502033005 | 53 | 300 | 0.0 | 0.0 | 0.00 | 0.00 | 0.00 | 65 | 1021.7 |
| 20260502032005 | 53 | 300 | 0.0 | 0.0 | 0.00 | 0.00 | 0.00 | 65 | 1021.7 |
| 20260502031005 | 54 | 300 | 0.0 | 0.0 | 0.00 | 0.00 | 0.00 | 63 | 1022.0 |
| 20260502030005 | 54 | 300 | 0.0 | 0.0 | 0.00 | 0.00 | 0.00 | 62 | 1022.0 |
| 20260502025004 | 54 | 300 | 0.0 | 0.0 | 0.00 | 0.00 | 0.00 | 62 | 1022.0 |
| 20260502023005 | 55 | 300 | 0.0 | 0.0 | 0.00 | 0.00 | 0.00 | 61 | 1022.2 |
| 20260502015004 | 57 | 296 | 2.0 | 2.0 | 0.00 | 0.00 | 0.00 | 57 | 1022.4 |
| 20260502014004 | 57 | 300 | 0.0 | 3.0 | 0.00 | 0.00 | 0.00 | 57 | 1022.4 |
| 20260502013005 | 57 | 300 | 3.0 | 3.0 | 0.00 | 0.00 | 0.00 | 56 | 1022.7 |
| 20260502012005 | 58 | 300 | 3.0 | 3.0 | 0.00 | 0.00 | 0.00 | 55 | 1022.7 |
| 20260502011005 | 58 | 296 | 0.0 | 1.0 | 0.00 | 0.00 | 0.00 | 55 | 1022.7 |